Temp
36 35 35 35 35 35 35 35 35 36 36 36 35 35 35 35 35 35 35 36 35 35 36 36 36 37 37 38 38 38 38 38 38 38 38 38 38 37 37 37 36 36 35 35 36 36 37 36 36 35 34 34 34 34 33 33 33 32 32 31 30 30 30 29 29 29 29 29 29
36 36 35 35 35 35 35 35 35 36 36 36 36 36 36 35 35 35 35 36 36 36 36 37 37 37 38 38 38 38 38 38 38 38 38 38 37 37 37 37 36 36 36 35 36 36 36 36 35 34 34 34 34 33 33 34 33 32 32 31 31 31 30 30 29 29 29 29 29
35 35 35 35 35 35 35 35 35 36 36 36 36 36 36 36 36 36 36 36 37 37 37 37 37 37 38 38 38 38 38 38 38 38 38 37 38 37 37 36 36 36 36 36 36 36 36 36 35 34 34 33 33 33 33 33 33 32 32 31 31 31 31 30 30 30 30 30 30
35 35 35 35 35 35 35 35 35 35 36 36 36 36 36 36 36 36 36 37 37 37 37 37 37 37 37 37 37 38 38 38 38 38 37 37 37 37 37 36 36 36 36 36 36 36 36 36 35 35 34 33 33 33 33 33 33 32 32 32 32 32 31 31 31 31 31 31 30
35 35 35 35 35 35 35 35 35 35 36 36 36 36 36 36 36 37 36 36 36 37 37 37 37 37 37 37 37 37 38 38 38 37 37 37 37 37 37 36 36 36 35 35 35 35 35 35 35 35 34 34 33 33 33 33 32 32 32 32 32 32 32 31 32 32 31 31 31
35 35 35 35 35 35 35 36 36 36 36 36 36 36 36 36 36 36 36 36 36 37 38 38 37 37 37 37 37 37 37 37 37 37 36 36 36 36 36 35 35 35 35 35 35 35 35 35 35 35 34 34 33 33 33 33 32 31 31 31 32 32 32 32 32 32 31 31 31
35 35 35 35 35 35 35 35 36 36 36 36 35 35 36 36 36 36 36 36 37 37 37 37 37 37 37 37 37 36 36 36 36 36 36 36 36 36 35 35 35 35 35 35 35 35 35 35 34 34 34 34 34 34 33 33 32 31 30 30 31 32 32 31 31 31 31 30 30
35 35 35 35 35 35 35 35 35 35 35 35 35 36 36 36 36 36 36 37 37 37 37 37 37 37 36 36 36 36 36 36 36 36 36 36 35 35 35 34 34 34 34 34 34 35 35 35 34 33 33 33 33 33 33 32 31 30 30 30 31 31 31 30 30 30 30 30 29
34 35 35 35 35 35 35 35 35 35 35 35 35 36 36 36 36 36 36 36 36 37 37 36 36 36 36 36 36 35 35 35 35 35 35 35 34 34 34 33 33 33 33 34 34 34 34 34 34 33 32 32 32 32 31 31 31 30 30 30 31 31 31 31 30 30 30 29 28
34 34 35 35 35 35 35 35 35 35 35 35 36 36 36 36 36 36 36 36 36 36 36 36 36 36 36 35 35 35 35 35 34 34 34 34 34 33 33 32 32 32 33 33 33 33 34 34 33 32 31 31 31 30 30 30 30 29 29 30 30 30 30 30 30 30 29 29 28
34 34 35 35 35 35 35 35 35 35 35 35 35 36 36 36 36 36 36 36 36 36 36 36 36 36 35 35 35 35 35 35 34 34 34 33 33 33 32 32 32 32 32 32 33 33 33 32 32 31 31 31 30 30 29 29 29 29 28 29 29 29 28 29 29 29 28 28 28
34 34 35 35 35 35 34 34 34 34 35 35 35 35 35 36 36 36 36 36 36 36 36 36 36 35 35 35 35 35 35 35 34 34 34 33 33 33 32 32 31 31 31 32 32 32 31 31 31 30 30 30 30 30 29 29 28 28 28 28 28 28 27 27 27 27 27 28 28
34 34 34 34 34 34 34 34 34 34 34 34 35 35 35 36 36 36 36 35 35 35 35 36 36 35 35 35 35 35 35 35 34 34 34 33 33 32 32 31 31 31 31 31 31 31 31 30 30 29 29 29 30 29 29 28 28 27 27 27 27 27 26 26 26 27 27 28 27
34 34 34 34 34 34 33 33 33 34 34 34 34 35 35 35 36 36 36 35 35 35 35 35 35 35 35 35 35 34 34 34 34 34 33 33 33 32 32 31 30 30 30 31 31 30 30 29 29 29 29 29 29 29 29 28 27 27 27 26 26 26 25 25 26 26 26 26 26
34 34 34 34 34 33 33 33 33 33 34 34 34 35 35 35 35 35 35 35 34 34 34 34 35 35 35 35 35 35 34 34 34 34 33 33 33 32 31 30 29 29 30 30 30 29 29 28 29 29 29 29 29 28 28 28 27 27 26 26 26 26 26 26 26 26 26 25 26
34 34 34 34 33 33 33 33 33 33 34 34 34 34 34 34 35 35 34 34 34 34 34 34 34 34 34 35 35 35 34 34 34 33 33 32 32 32 31 30 29 28 28 29 29 29 28 28 28 29 29 29 29 28 28 27 27 26 26 26 26 26 26 26 26 26 25 25 26
33 33 33 33 33 33 33 33 33 33 33 33 34 34 34 34 34 34 34 33 33 33 33 33 33 34 34 34 34 34 34 34 33 33 32 32 32 31 31 30 28 28 27 27 27 28 28 28 28 29 29 29 28 28 27 27 26 26 26 27 27 27 27 27 26 26 25 26 27
33 33 33 33 33 32 32 32 32 33 33 33 33 33 33 34 33 33 33 33 33 33 32 33 33 33 33 33 34 34 33 33 33 33 32 32 32 31 31 30 29 28 27 27 27 27 27 27 28 29 29 29 29 28 27 27 26 26 26 27 27 27 26 26 26 26 26 27 27
33 33 33 32 32 32 32 32 32 32 33 33 33 33 33 33 33 33 33 33 33 33 32 32 32 33 33 33 33 33 33 33 32 32 32 32 32 31 31 30 29 28 27 27 27 27 27 28 29 29 30 30 29 28 27 27 26 26 26 26 26 26 27 27 27 28 28 28 28
32 32 32 32 32 32 32 32 32 33 33 33 33 33 33 33 33 32 32 32 33 33 32 32 32 32 33 33 32 32 32 33 32 32 32 32 32 31 31 30 29 28 28 27 27 27 27 28 29 30 30 30 29 28 27 27 26 26 26 26 27 28 28 28 29 29 29 29 29
32 32 32 32 32 32 32 32 33 33 33 33 33 33 33 33 33 32 32 32 33 33 32 32 32 32 32 32 32 31 32 32 32 32 32 32 32 31 31 30 29 28 28 28 27 27 27 28 29 30 30 30 29 28 27 26 26 26 27 28 29 30 30 30 30 30 29 29 29
32 32 32 32 32 32 32 33 33 33 33 33 33 33 33 33 32 32 33 33 33 33 32 32 32 32 32 32 31 31 32 32 32 32 32 32 32 32 32 31 30 29 28 28 28 27 27 28 29 30 30 29 28 27 27 27 27 28 29 30 31 31 30 31 31 30 30 29 29
32 32 32 32 32 32 33 33 33 33 33 33 33 33 33 33 33 33 33 33 32 32 32 32 32 32 31 31 31 31 31 32 32 33 33 33 32 32 32 32 30 29 29 29 29 28 28 29 30 30 29 28 27 27 27 27 28 28 29 30 30 30 30 30 30 30 30 30 30
32 32 32 32 32 32 33 33 33 33 33 33 33 33 33 33 32 32 32 32 31 31 31 31 31 31 31 31 31 31 32 32 32 32 33 33 32 32 32 31 31 30 31 30 31 31 32 32 32 31 29 28 27 27 28 28 29 29 29 30 30 30 30 30 30 30 30 30 30
32 32 32 32 32 32 32 33 33 33 33 33 33 33 33 33 32 32 32 31 31 31 31 31 31 31 31 32 32 32 32 32 32 32 32 32 32 32 32 32 32 31 31 31 34 35 36 36 35 32 30 29 29 28 28 29 29 30 30 30 30 30 30 30 30 30 30 29 29
32 32 32 32 32 32 32 32 33 33 33 33 33 33 33 32 32 32 31 31 31 31 31 31 31 31 32 32 32 33 33 33 32 32 32 32 32 32 32 32 32 30 30 32 35 37 38 39 38 36 32 30 30 30 29 29 30 30 30 30 30 30 29 29 30 30 30 30 29
31 31 31 32 32 32 33 33 33 33 33 33 33 33 33 33 32 32 31 31 31 31 31 31 31 32 32 33 32 32 32 33 33 32 32 32 32 32 32 32 32 30 30 34 36 38 38 39 39 38 35 31 31 31 30 30 30 31 31 30 30 30 30 30 30 30 30 30 29
30 30 31 32 32 32 33 33 33 33 33 33 33 33 33 33 32 32 31 31 31 31 31 31 32 33 33 33 32 32 32 32 33 33 32 32 32 32 32 32 32 31 33 36 37 38 38 39 39 39 37 34 32 31 31 30 30 31 31 31 31 31 31 31 31 31 31 30 30
29 30 31 31 32 33 33 33 33 33 34 33 33 33 33 33 32 32 32 32 32 32 32 32 33 33 33 33 33 32 32 33 33 33 33 32 32 32 32 33 33 33 35 37 37 38 38 38 39 39 38 36 33 32 31 30 30 31 31 32 32 32 32 32 32 31 31 31 30
29 30 31 31 32 33 33 33 34 34 34 34 34 33 33 33 32 32 32 32 32 32 33 33 33 33 32 32 32 32 33 33 33 33 32 32 32 32 32 33 33 33 34 37 37 38 38 38 39 39 39 37 34 32 30 30 30 31 31 32 32 33 33 33 32 32 31 31 31
29 30 31 31 32 32 33 34 34 34 34 34 33 33 33 32 32 32 33 33 33 33 34 34 33 33 33 33 33 33 33 33 33 33 32 32 32 33 33 33 33 33 34 37 37 38 38 39 39 39 39 38 35 32 30 30 30 31 31 32 33 33 33 33 32 32 31 31 31
28 30 30 31 32 32 33 34 34 34 34 34 33 33 33 33 33 33 34 34 34 34 34 34 33 33 33 33 33 33 33 33 33 32 32 32 32 33 33 33 33 33 34 37 37 38 38 39 39 39 39 38 35 32 30 30 30 30 31 32 33 33 33 33 33 32 32 31 31
28 29 30 31 31 32 33 34 34 34 34 33 33 33 33 33 33 34 34 34 34 34 33 33 33 33 32 33 33 33 33 33 33 33 33 33 33 33 33 34 33 34 35 37 38 38 38 39 39 39 39 38 35 32 31 31 31 31 32 33 33 33 34 34 33 33 32 31 31
27 29 30 31 32 32 33 33 33 33 33 33 33 33 33 33 33 33 34 34 34 34 34 34 33 33 33 33 33 33 32 33 33 33 33 33 33 34 34 33 33 34 36 37 38 38 38 39 39 39 39 37 34 32 32 32 32 33 34 34 34 34 33 33 33 33 32 32 32
27 29 30 31 32 33 33 33 33 33 33 33 33 33 33 34 33 34 34 35 35 34 34 34 34 34 34 34 33 33 33 33 33 33 33 34 34 34 34 34 34 35 37 38 38 38 38 38 39 39 39 37 34 32 31 31 32 33 34 35 34 33 32 32 32 32 33 33 32
28 30 31 31 32 33 33 33 33 33 33 33 33 33 33 34 34 34 35 35 35 34 34 34 34 34 34 33 33 33 33 33 33 33 34 34 34 34 34 34 34 36 37 38 38 38 38 38 39 39 38 37 34 32 32 32 32 33 34 34 34 34 33 32 32 32 33 33 33
29 30 31 32 32 32 33 33 33 32 32 33 33 33 33 34 34 35 35 35 34 34 33 33 33 33 33 33 33 33 33 34 34 34 34 34 34 34 34 34 34 35 36 37 38 38 38 38 39 38 38 36 34 33 32 32 32 33 33 33 33 34 33 33 33 33 32 32 33
30 31 31 32 32 32 32 32 32 32 32 33 33 33 34 34 34 35 35 35 34 33 33 33 33 33 33 33 33 33 34 34 34 34 34 34 34 34 34 34 34 35 36 37 38 38 38 38 39 38 37 35 34 34 33 32 32 32 33 33 33 33 33 33 34 34 33 32 34
31 31 31 31 32 32 32 32 32 32 33 33 33 34 34 34 34 35 35 35 34 34 33 33 33 33 33 34 34 34 34 35 35 35 35 35 35 35 35 34 34 35 36 37 38 38 38 39 39 38 38 35 34 34 34 33 32 32 32 32 33 33 33 33 34 34 34 34 35
32 32 32 32 32 32 32 32 32 33 33 33 33 34 34 34 35 35 35 35 35 34 34 33 33 34 34 34 34 34 34 34 35 35 35 35 36 36 36 35 35 35 36 37 38 38 39 39 39 39 38 36 35 34 34 33 32 32 32 32 32 32 32 33 34 34 34 34 35
33 33 33 33 33 32 32 32 33 33 33 33 34 34 34 35 35 35 35 35 35 35 34 34 34 34 34 35 34 34 34 34 35 35 36 36 36 36 36 36 35 36 36 37 38 39 39 39 39 39 39 36 35 35 34 34 32 31 31 31 32 31 32 32 33 33 34 34 34
MSLP
1033.10 1033.10 1033.06 1032.98 1032.94 1032.82 1032.70 1032.54 1032.42 1032.30 1032.18 1032.02 1031.90 1031.78 1031.66 1031.54 1031.42 1031.26 1031.10 1030.94 1030.78 1030.58 1030.42 1030.26 1030.06 1029.86 1029.66 1029.42 1029.26 1029.06 1028.86 1028.70 1028.50 1028.26 1028.10 1027.90 1027.74 1027.58 1027.46 1027.30 1027.14 1026.98 1026.78 1026.50 1026.10 1025.74 1025.42 1025.26 1025.10 1024.90 1024.70 1024.42 1024.22 1024.02 1023.82 1023.70 1023.54 1023.38 1023.22 1023.06 1022.82 1022.62 1022.46 1022.26 1022.06 1021.86 1021.70 1021.50 1021.34
1032.98 1032.98 1032.98 1032.86 1032.82 1032.74 1032.62 1032.46 1032.34 1032.18 1032.06 1031.94 1031.82 1031.74 1031.62 1031.50 1031.34 1031.14 1030.98 1030.86 1030.74 1030.54 1030.38 1030.14 1029.98 1029.78 1029.54 1029.38 1029.22 1029.02 1028.82 1028.62 1028.38 1028.22 1027.98 1027.82 1027.70 1027.54 1027.38 1027.26 1027.06 1026.90 1026.70 1026.42 1026.10 1025.78 1025.50 1025.26 1025.10 1024.86 1024.66 1024.42 1024.18 1023.98 1023.78 1023.62 1023.50 1023.30 1023.10 1022.90 1022.70 1022.54 1022.34 1022.10 1021.94 1021.70 1021.54 1021.34 1021.14
1032.90 1032.90 1032.86 1032.82 1032.70 1032.58 1032.46 1032.34 1032.22 1032.10 1031.98 1031.86 1031.82 1031.70 1031.54 1031.42 1031.26 1031.10 1030.94 1030.78 1030.66 1030.50 1030.26 1030.02 1029.86 1029.70 1029.50 1029.30 1029.14 1028.98 1028.82 1028.58 1028.34 1028.14 1027.98 1027.78 1027.58 1027.42 1027.30 1027.14 1026.98 1026.82 1026.62 1026.38 1026.10 1025.82 1025.54 1025.30 1025.10 1024.86 1024.62 1024.38 1024.18 1023.98 1023.78 1023.62 1023.46 1023.30 1023.06 1022.82 1022.62 1022.42 1022.26 1022.02 1021.82 1021.62 1021.42 1021.14 1020.98
1032.82 1032.78 1032.70 1032.66 1032.58 1032.50 1032.38 1032.26 1032.10 1031.98 1031.90 1031.82 1031.70 1031.62 1031.46 1031.30 1031.14 1030.98 1030.82 1030.70 1030.54 1030.34 1030.14 1029.98 1029.78 1029.62 1029.42 1029.26 1029.10 1028.90 1028.70 1028.54 1028.30 1028.10 1027.90 1027.70 1027.54 1027.38 1027.26 1027.10 1026.94 1026.74 1026.54 1026.34 1026.10 1025.82 1025.54 1025.34 1025.10 1024.82 1024.66 1024.42 1024.22 1023.98 1023.82 1023.62 1023.46 1023.26 1023.06 1022.82 1022.58 1022.38 1022.18 1021.98 1021.74 1021.54 1021.30 1021.06 1020.82
1032.70 1032.70 1032.66 1032.58 1032.54 1032.42 1032.34 1032.26 1032.10 1031.98 1031.86 1031.78 1031.66 1031.50 1031.34 1031.18 1031.02 1030.86 1030.70 1030.54 1030.38 1030.22 1030.02 1029.86 1029.70 1029.54 1029.38 1029.18 1028.98 1028.82 1028.66 1028.46 1028.26 1028.10 1027.94 1027.70 1027.54 1027.34 1027.18 1027.06 1026.90 1026.74 1026.54 1026.30 1026.06 1025.82 1025.54 1025.30 1025.06 1024.82 1024.62 1024.42 1024.22 1024.02 1023.82 1023.70 1023.50 1023.30 1023.10 1022.86 1022.58 1022.34 1022.10 1021.94 1021.70 1021.50 1021.26 1021.06 1020.82
1032.58 1032.58 1032.58 1032.54 1032.46 1032.38 1032.26 1032.18 1032.02 1031.94 1031.82 1031.70 1031.54 1031.38 1031.22 1031.06 1030.90 1030.74 1030.58 1030.46 1030.30 1030.10 1029.94 1029.78 1029.62 1029.42 1029.26 1029.10 1028.94 1028.78 1028.58 1028.42 1028.26 1028.10 1027.90 1027.70 1027.54 1027.38 1027.18 1027.06 1026.90 1026.70 1026.54 1026.26 1026.02 1025.78 1025.54 1025.30 1025.06 1024.82 1024.58 1024.42 1024.22 1023.98 1023.82 1023.70 1023.54 1023.38 1023.14 1022.90 1022.62 1022.38 1022.14 1021.94 1021.74 1021.54 1021.30 1021.10 1020.82
1032.54 1032.54 1032.50 1032.46 1032.38 1032.30 1032.22 1032.10 1031.98 1031.86 1031.74 1031.62 1031.42 1031.26 1031.06 1030.94 1030.78 1030.66 1030.50 1030.38 1030.22 1030.02 1029.86 1029.70 1029.54 1029.34 1029.18 1029.02 1028.86 1028.70 1028.50 1028.30 1028.18 1028.06 1027.90 1027.70 1027.54 1027.38 1027.22 1027.10 1026.94 1026.74 1026.54 1026.26 1025.98 1025.70 1025.50 1025.26 1025.02 1024.82 1024.62 1024.42 1024.18 1023.98 1023.74 1023.66 1023.54 1023.42 1023.18 1022.94 1022.66 1022.38 1022.22 1022.02 1021.82 1021.62 1021.38 1021.10 1020.86
1032.50 1032.46 1032.38 1032.38 1032.26 1032.22 1032.10 1032.02 1031.94 1031.82 1031.66 1031.46 1031.26 1031.10 1030.98 1030.82 1030.70 1030.54 1030.42 1030.26 1030.10 1029.94 1029.78 1029.66 1029.46 1029.30 1029.10 1028.98 1028.82 1028.62 1028.46 1028.30 1028.14 1027.98 1027.82 1027.70 1027.54 1027.38 1027.22 1027.10 1026.90 1026.70 1026.50 1026.26 1025.98 1025.70 1025.46 1025.26 1025.06 1024.90 1024.70 1024.54 1024.26 1023.98 1023.78 1023.66 1023.50 1023.34 1023.14 1022.94 1022.66 1022.38 1022.22 1022.06 1021.86 1021.66 1021.42 1021.14 1020.90
1032.38 1032.34 1032.30 1032.22 1032.18 1032.10 1031.98 1031.90 1031.82 1031.70 1031.54 1031.34 1031.14 1030.98 1030.86 1030.70 1030.58 1030.46 1030.30 1030.10 1029.98 1029.86 1029.74 1029.54 1029.42 1029.22 1029.06 1028.94 1028.74 1028.54 1028.38 1028.26 1028.10 1027.90 1027.74 1027.62 1027.46 1027.34 1027.18 1027.02 1026.86 1026.70 1026.46 1026.26 1025.98 1025.70 1025.46 1025.22 1025.02 1024.94 1024.82 1024.66 1024.38 1024.10 1023.86 1023.70 1023.50 1023.30 1023.10 1022.82 1022.54 1022.30 1022.14 1022.02 1021.82 1021.62 1021.38 1021.14 1020.90
1032.26 1032.22 1032.14 1032.10 1032.02 1031.98 1031.90 1031.82 1031.70 1031.54 1031.42 1031.22 1031.06 1030.90 1030.78 1030.62 1030.50 1030.38 1030.22 1030.06 1029.94 1029.78 1029.62 1029.46 1029.30 1029.14 1028.98 1028.82 1028.66 1028.50 1028.34 1028.14 1027.98 1027.82 1027.70 1027.54 1027.42 1027.26 1027.10 1027.02 1026.86 1026.70 1026.46 1026.26 1025.98 1025.74 1025.46 1025.22 1025.02 1024.94 1024.82 1024.70 1024.46 1024.26 1023.98 1023.74 1023.54 1023.34 1023.10 1022.82 1022.58 1022.34 1022.14 1021.98 1021.82 1021.58 1021.38 1021.14 1020.86
1032.10 1032.10 1032.06 1031.98 1031.86 1031.82 1031.82 1031.70 1031.54 1031.42 1031.26 1031.10 1030.94 1030.82 1030.70 1030.54 1030.38 1030.26 1030.14 1030.02 1029.86 1029.70 1029.54 1029.38 1029.26 1029.10 1028.90 1028.74 1028.58 1028.42 1028.26 1028.10 1027.94 1027.78 1027.58 1027.42 1027.30 1027.18 1027.06 1026.94 1026.82 1026.66 1026.42 1026.26 1025.98 1025.78 1025.50 1025.26 1025.06 1024.90 1024.74 1024.62 1024.42 1024.22 1023.98 1023.78 1023.54 1023.38 1023.10 1022.86 1022.66 1022.38 1022.18 1021.98 1021.82 1021.66 1021.42 1021.10 1020.82
1031.98 1031.98 1031.94 1031.86 1031.82 1031.78 1031.70 1031.58 1031.46 1031.30 1031.14 1030.98 1030.82 1030.70 1030.58 1030.46 1030.34 1030.18 1030.06 1029.94 1029.78 1029.58 1029.42 1029.30 1029.18 1028.98 1028.82 1028.66 1028.54 1028.38 1028.18 1027.98 1027.82 1027.70 1027.50 1027.34 1027.18 1027.10 1026.98 1026.82 1026.74 1026.54 1026.38 1026.18 1025.98 1025.78 1025.54 1025.34 1025.10 1024.90 1024.70 1024.50 1024.38 1024.14 1023.98 1023.78 1023.58 1023.38 1023.14 1022.94 1022.70 1022.42 1022.26 1022.02 1021.86 1021.70 1021.42 1021.10 1020.86
1031.90 1031.86 1031.82 1031.74 1031.70 1031.66 1031.58 1031.46 1031.34 1031.22 1031.06 1030.86 1030.70 1030.58 1030.46 1030.34 1030.22 1030.10 1029.98 1029.82 1029.70 1029.54 1029.38 1029.26 1029.10 1028.94 1028.74 1028.54 1028.38 1028.26 1028.10 1027.94 1027.74 1027.58 1027.42 1027.26 1027.10 1026.98 1026.86 1026.74 1026.62 1026.50 1026.30 1026.10 1025.98 1025.78 1025.58 1025.38 1025.10 1024.90 1024.66 1024.46 1024.26 1024.10 1023.94 1023.78 1023.62 1023.42 1023.14 1022.90 1022.70 1022.46 1022.26 1022.06 1021.86 1021.66 1021.42 1021.14 1020.90
1031.82 1031.74 1031.70 1031.66 1031.58 1031.54 1031.46 1031.34 1031.22 1031.06 1030.90 1030.74 1030.62 1030.50 1030.38 1030.26 1030.14 1030.02 1029.90 1029.74 1029.58 1029.46 1029.34 1029.14 1028.98 1028.82 1028.66 1028.46 1028.30 1028.14 1027.98 1027.82 1027.66 1027.50 1027.30 1027.14 1026.98 1026.86 1026.78 1026.66 1026.54 1026.38 1026.26 1026.06 1025.90 1025.70 1025.54 1025.34 1025.10 1024.86 1024.66 1024.38 1024.22 1024.02 1023.90 1023.78 1023.62 1023.42 1023.18 1022.94 1022.70 1022.46 1022.26 1022.02 1021.82 1021.62 1021.42 1021.18 1020.90
1031.70 1031.62 1031.54 1031.54 1031.50 1031.42 1031.30 1031.26 1031.10 1030.94 1030.78 1030.66 1030.54 1030.42 1030.34 1030.18 1030.06 1029.98 1029.82 1029.70 1029.54 1029.42 1029.26 1029.06 1028.86 1028.70 1028.54 1028.38 1028.26 1028.06 1027.90 1027.70 1027.54 1027.38 1027.22 1027.06 1026.90 1026.78 1026.66 1026.54 1026.42 1026.30 1026.14 1025.98 1025.78 1025.62 1025.46 1025.26 1025.10 1024.82 1024.58 1024.34 1024.10 1023.98 1023.82 1023.70 1023.58 1023.42 1023.18 1022.94 1022.70 1022.42 1022.18 1021.98 1021.70 1021.54 1021.38 1021.18 1020.90
1031.54 1031.50 1031.46 1031.42 1031.38 1031.26 1031.22 1031.10 1030.98 1030.82 1030.70 1030.54 1030.46 1030.38 1030.26 1030.14 1029.98 1029.90 1029.78 1029.62 1029.50 1029.34 1029.18 1028.98 1028.82 1028.62 1028.46 1028.30 1028.10 1027.94 1027.78 1027.58 1027.42 1027.26 1027.10 1026.98 1026.82 1026.70 1026.54 1026.42 1026.34 1026.18 1025.98 1025.82 1025.70 1025.50 1025.34 1025.18 1025.02 1024.82 1024.54 1024.26 1024.06 1023.90 1023.78 1023.66 1023.50 1023.30 1023.10 1022.86 1022.58 1022.34 1022.10 1021.90 1021.66 1021.46 1021.30 1021.10 1020.82
1031.42 1031.38 1031.34 1031.26 1031.26 1031.18 1031.10 1030.98 1030.90 1030.78 1030.62 1030.50 1030.38 1030.30 1030.18 1030.06 1029.94 1029.82 1029.70 1029.58 1029.42 1029.26 1029.10 1028.94 1028.74 1028.54 1028.34 1028.14 1027.98 1027.82 1027.70 1027.50 1027.30 1027.14 1027.02 1026.90 1026.74 1026.58 1026.42 1026.30 1026.18 1026.02 1025.86 1025.70 1025.54 1025.38 1025.22 1025.06 1024.90 1024.70 1024.42 1024.18 1023.98 1023.86 1023.74 1023.58 1023.42 1023.26 1022.98 1022.78 1022.50 1022.26 1022.02 1021.78 1021.58 1021.42 1021.22 1020.98 1020.74
1031.30 1031.26 1031.26 1031.18 1031.10 1031.06 1031.02 1030.94 1030.82 1030.70 1030.58 1030.42 1030.34 1030.22 1030.10 1029.98 1029.86 1029.74 1029.62 1029.50 1029.34 1029.14 1028.98 1028.82 1028.66 1028.46 1028.26 1028.06 1027.90 1027.74 1027.58 1027.42 1027.26 1027.10 1026.94 1026.78 1026.62 1026.46 1026.30 1026.14 1025.98 1025.86 1025.74 1025.54 1025.42 1025.22 1025.06 1024.90 1024.70 1024.54 1024.26 1024.02 1023.86 1023.74 1023.66 1023.50 1023.34 1023.10 1022.90 1022.66 1022.38 1022.14 1021.90 1021.66 1021.46 1021.26 1021.10 1020.82 1020.62
1031.22 1031.14 1031.10 1031.06 1031.02 1030.98 1030.90 1030.82 1030.70 1030.62 1030.46 1030.34 1030.22 1030.10 1029.98 1029.86 1029.74 1029.62 1029.50 1029.38 1029.22 1029.06 1028.86 1028.70 1028.50 1028.30 1028.10 1027.98 1027.78 1027.62 1027.46 1027.30 1027.14 1026.98 1026.82 1026.66 1026.46 1026.30 1026.14 1025.98 1025.82 1025.70 1025.54 1025.42 1025.22 1025.02 1024.86 1024.70 1024.50 1024.30 1024.10 1023.86 1023.70 1023.58 1023.50 1023.38 1023.18 1022.98 1022.78 1022.54 1022.26 1021.98 1021.74 1021.50 1021.30 1021.10 1020.90 1020.70 1020.50
1031.10 1031.06 1030.98 1030.98 1030.94 1030.86 1030.82 1030.70 1030.62 1030.50 1030.38 1030.22 1030.10 1029.98 1029.82 1029.74 1029.58 1029.46 1029.34 1029.22 1029.06 1028.94 1028.78 1028.58 1028.38 1028.18 1027.98 1027.82 1027.70 1027.54 1027.34 1027.22 1027.02 1026.82 1026.66 1026.46 1026.30 1026.14 1025.98 1025.82 1025.62 1025.50 1025.34 1025.18 1024.98 1024.82 1024.66 1024.42 1024.26 1024.02 1023.86 1023.70 1023.54 1023.42 1023.34 1023.22 1023.02 1022.82 1022.62 1022.38 1022.10 1021.78 1021.54 1021.34 1021.10 1020.94 1020.74 1020.58 1020.38
1031.02 1030.98 1030.94 1030.90 1030.82 1030.78 1030.70 1030.62 1030.50 1030.38 1030.26 1030.10 1029.98 1029.82 1029.70 1029.58 1029.46 1029.34 1029.22 1029.06 1028.94 1028.78 1028.62 1028.42 1028.26 1028.06 1027.86 1027.70 1027.54 1027.42 1027.26 1027.06 1026.86 1026.70 1026.50 1026.30 1026.10 1025.94 1025.78 1025.62 1025.42 1025.26 1025.10 1024.98 1024.78 1024.58 1024.38 1024.14 1023.94 1023.70 1023.58 1023.54 1023.42 1023.34 1023.22 1023.06 1022.86 1022.66 1022.42 1022.14 1021.82 1021.58 1021.38 1021.18 1020.98 1020.78 1020.58 1020.42 1020.26
1030.98 1030.94 1030.86 1030.82 1030.74 1030.70 1030.58 1030.46 1030.38 1030.22 1030.10 1029.98 1029.82 1029.70 1029.54 1029.42 1029.30 1029.22 1029.10 1028.94 1028.82 1028.66 1028.46 1028.30 1028.10 1027.98 1027.82 1027.66 1027.46 1027.30 1027.10 1026.90 1026.70 1026.50 1026.30 1026.10 1025.94 1025.78 1025.62 1025.42 1025.26 1025.10 1024.90 1024.70 1024.54 1024.34 1024.10 1023.82 1023.54 1023.38 1023.30 1023.34 1023.26 1023.18 1023.02 1022.82 1022.66 1022.42 1022.18 1021.94 1021.66 1021.46 1021.26 1021.06 1020.82 1020.66 1020.46 1020.26 1020.10
1030.86 1030.82 1030.82 1030.74 1030.62 1030.54 1030.46 1030.34 1030.22 1030.10 1029.98 1029.82 1029.70 1029.54 1029.42 1029.30 1029.18 1029.06 1028.94 1028.82 1028.70 1028.54 1028.38 1028.22 1028.02 1027.86 1027.70 1027.54 1027.42 1027.18 1026.98 1026.70 1026.50 1026.26 1026.10 1025.94 1025.78 1025.58 1025.42 1025.26 1025.10 1024.86 1024.70 1024.46 1024.30 1024.10 1023.82 1023.50 1023.14 1022.98 1023.02 1023.14 1023.10 1022.98 1022.78 1022.62 1022.42 1022.22 1021.98 1021.78 1021.54 1021.34 1021.14 1020.98 1020.74 1020.54 1020.34 1020.14 1019.98
1030.82 1030.78 1030.70 1030.62 1030.54 1030.38 1030.30 1030.18 1030.06 1029.94 1029.78 1029.66 1029.54 1029.42 1029.30 1029.18 1029.06 1028.94 1028.78 1028.70 1028.54 1028.38 1028.26 1028.10 1027.98 1027.78 1027.58 1027.42 1027.26 1026.98 1026.78 1026.54 1026.30 1026.10 1025.94 1025.78 1025.62 1025.42 1025.26 1025.06 1024.86 1024.62 1024.42 1024.26 1024.10 1023.82 1023.50 1023.10 1022.78 1022.70 1022.78 1022.90 1022.82 1022.70 1022.50 1022.38 1022.18 1021.98 1021.82 1021.58 1021.42 1021.22 1021.02 1020.82 1020.66 1020.46 1020.26 1020.06 1019.82
1030.70 1030.66 1030.58 1030.50 1030.38 1030.26 1030.14 1030.02 1029.86 1029.74 1029.62 1029.50 1029.38 1029.26 1029.10 1029.02 1028.94 1028.82 1028.70 1028.54 1028.38 1028.26 1028.10 1027.98 1027.82 1027.62 1027.42 1027.22 1026.98 1026.78 1026.54 1026.34 1026.10 1025.94 1025.78 1025.62 1025.42 1025.26 1025.06 1024.86 1024.66 1024.42 1024.26 1024.10 1023.82 1023.46 1023.06 1022.66 1022.42 1022.46 1022.62 1022.66 1022.58 1022.42 1022.26 1022.10 1021.98 1021.82 1021.62 1021.42 1021.26 1021.10 1020.90 1020.70 1020.54 1020.34 1020.14 1019.94 1019.78
1030.58 1030.54 1030.46 1030.38 1030.26 1030.10 1029.98 1029.86 1029.70 1029.58 1029.46 1029.34 1029.22 1029.10 1028.98 1028.86 1028.78 1028.70 1028.54 1028.38 1028.26 1028.10 1027.94 1027.82 1027.62 1027.42 1027.22 1026.98 1026.74 1026.54 1026.38 1026.18 1025.98 1025.82 1025.62 1025.46 1025.26 1025.10 1024.86 1024.70 1024.42 1024.26 1024.10 1023.86 1023.54 1023.18 1022.82 1022.38 1022.10 1022.18 1022.38 1022.46 1022.38 1022.22 1022.02 1021.86 1021.74 1021.62 1021.46 1021.26 1021.10 1020.98 1020.78 1020.54 1020.38 1020.18 1020.06 1019.86 1019.70
1030.50 1030.42 1030.34 1030.22 1030.10 1029.94 1029.82 1029.66 1029.54 1029.42 1029.30 1029.18 1029.06 1028.98 1028.86 1028.74 1028.66 1028.54 1028.38 1028.22 1028.10 1027.94 1027.78 1027.58 1027.42 1027.22 1026.98 1026.78 1026.54 1026.38 1026.18 1025.98 1025.82 1025.66 1025.46 1025.26 1025.10 1024.90 1024.70 1024.46 1024.26 1024.10 1023.90 1023.62 1023.26 1022.94 1022.62 1022.34 1021.98 1021.86 1021.98 1022.10 1022.10 1022.02 1021.86 1021.70 1021.62 1021.46 1021.30 1021.14 1020.98 1020.78 1020.58 1020.38 1020.26 1020.10 1019.94 1019.78 1019.62
1030.46 1030.38 1030.26 1030.10 1029.94 1029.78 1029.62 1029.50 1029.38 1029.26 1029.14 1029.02 1028.94 1028.82 1028.74 1028.62 1028.50 1028.34 1028.22 1028.06 1027.90 1027.74 1027.54 1027.38 1027.22 1027.02 1026.82 1026.54 1026.38 1026.22 1026.06 1025.86 1025.70 1025.50 1025.30 1025.10 1024.94 1024.74 1024.54 1024.30 1024.10 1023.86 1023.62 1023.30 1022.98 1022.74 1022.46 1022.22 1021.94 1021.66 1021.54 1021.74 1021.82 1021.82 1021.70 1021.62 1021.50 1021.34 1021.14 1020.98 1020.82 1020.62 1020.38 1020.26 1020.10 1019.98 1019.82 1019.70 1019.54
1030.38 1030.26 1030.10 1029.98 1029.78 1029.62 1029.46 1029.34 1029.22 1029.10 1028.98 1028.90 1028.82 1028.70 1028.54 1028.42 1028.30 1028.18 1028.02 1027.86 1027.70 1027.54 1027.34 1027.14 1026.98 1026.82 1026.66 1026.46 1026.26 1026.10 1025.90 1025.70 1025.54 1025.34 1025.14 1024.98 1024.78 1024.58 1024.38 1024.14 1023.90 1023.70 1023.42 1023.10 1022.86 1022.58 1022.34 1022.10 1021.86 1021.54 1021.34 1021.38 1021.50 1021.54 1021.54 1021.50 1021.38 1021.22 1021.02 1020.82 1020.66 1020.42 1020.26 1020.10 1019.98 1019.82 1019.74 1019.58 1019.42
1030.34 1030.18 1029.98 1029.82 1029.62 1029.46 1029.30 1029.18 1029.06 1028.98 1028.86 1028.78 1028.66 1028.54 1028.38 1028.26 1028.14 1027.98 1027.82 1027.66 1027.50 1027.34 1027.18 1027.02 1026.86 1026.70 1026.50 1026.38 1026.14 1025.94 1025.74 1025.54 1025.38 1025.22 1025.06 1024.86 1024.66 1024.42 1024.18 1023.98 1023.74 1023.50 1023.26 1022.98 1022.70 1022.46 1022.22 1021.98 1021.74 1021.42 1021.18 1021.10 1021.18 1021.26 1021.34 1021.34 1021.18 1021.02 1020.86 1020.70 1020.50 1020.26 1020.10 1019.94 1019.82 1019.70 1019.62 1019.50 1019.34
1030.18 1030.02 1029.86 1029.70 1029.50 1029.34 1029.18 1029.06 1028.94 1028.82 1028.74 1028.66 1028.54 1028.38 1028.26 1028.10 1027.98 1027.82 1027.66 1027.50 1027.30 1027.18 1027.02 1026.86 1026.70 1026.54 1026.38 1026.22 1026.02 1025.82 1025.66 1025.46 1025.26 1025.10 1024.90 1024.70 1024.46 1024.26 1024.02 1023.82 1023.54 1023.34 1023.10 1022.82 1022.58 1022.38 1022.10 1021.86 1021.58 1021.30 1021.06 1020.86 1020.94 1021.10 1021.18 1021.18 1021.02 1020.82 1020.70 1020.50 1020.30 1020.10 1019.94 1019.82 1019.70 1019.62 1019.54 1019.42 1019.26
1030.10 1029.90 1029.70 1029.54 1029.34 1029.18 1029.06 1028.90 1028.82 1028.70 1028.58 1028.50 1028.38 1028.26 1028.10 1027.94 1027.78 1027.62 1027.46 1027.30 1027.18 1027.02 1026.82 1026.70 1026.54 1026.38 1026.22 1026.02 1025.86 1025.70 1025.50 1025.30 1025.10 1024.98 1024.78 1024.54 1024.30 1024.06 1023.82 1023.62 1023.38 1023.14 1022.98 1022.70 1022.46 1022.22 1021.98 1021.70 1021.42 1021.18 1020.94 1020.78 1020.82 1020.98 1021.10 1021.02 1020.90 1020.66 1020.38 1020.18 1020.02 1019.86 1019.74 1019.66 1019.54 1019.46 1019.42 1019.30 1019.22
1029.94 1029.78 1029.58 1029.42 1029.22 1029.06 1028.94 1028.78 1028.70 1028.54 1028.46 1028.34 1028.22 1028.10 1027.94 1027.78 1027.58 1027.42 1027.30 1027.18 1027.02 1026.86 1026.70 1026.54 1026.38 1026.22 1026.10 1025.90 1025.70 1025.54 1025.38 1025.18 1024.98 1024.82 1024.62 1024.38 1024.18 1023.94 1023.70 1023.42 1023.26 1023.02 1022.82 1022.54 1022.30 1022.02 1021.82 1021.54 1021.34 1021.10 1020.82 1020.70 1020.78 1020.90 1020.94 1020.86 1020.70 1020.38 1020.02 1019.78 1019.58 1019.54 1019.50 1019.46 1019.42 1019.38 1019.30 1019.22 1019.10
1029.82 1029.66 1029.46 1029.30 1029.10 1028.94 1028.78 1028.66 1028.54 1028.46 1028.34 1028.18 1028.06 1027.90 1027.74 1027.58 1027.42 1027.26 1027.14 1027.02 1026.86 1026.70 1026.54 1026.42 1026.26 1026.10 1025.98 1025.78 1025.62 1025.42 1025.26 1025.06 1024.86 1024.70 1024.50 1024.26 1023.98 1023.74 1023.50 1023.30 1023.10 1022.90 1022.66 1022.38 1022.10 1021.86 1021.66 1021.42 1021.18 1020.94 1020.70 1020.66 1020.74 1020.82 1020.78 1020.70 1020.46 1020.10 1019.70 1019.46 1019.30 1019.26 1019.26 1019.26 1019.22 1019.18 1019.10 1019.06 1018.98
1029.66 1029.50 1029.30 1029.10 1028.90 1028.74 1028.62 1028.54 1028.42 1028.30 1028.18 1028.06 1027.90 1027.74 1027.58 1027.42 1027.26 1027.14 1026.98 1026.82 1026.70 1026.54 1026.38 1026.26 1026.10 1025.98 1025.82 1025.70 1025.54 1025.34 1025.14 1024.98 1024.74 1024.54 1024.30 1024.10 1023.82 1023.58 1023.34 1023.14 1022.98 1022.74 1022.50 1022.22 1021.98 1021.74 1021.50 1021.26 1021.06 1020.78 1020.58 1020.54 1020.70 1020.70 1020.62 1020.46 1020.22 1019.90 1019.58 1019.38 1019.22 1019.10 1019.06 1019.06 1019.06 1018.98 1018.98 1018.86 1018.82
1029.42 1029.26 1029.10 1028.90 1028.74 1028.62 1028.50 1028.38 1028.30 1028.18 1028.02 1027.90 1027.74 1027.58 1027.42 1027.30 1027.14 1027.02 1026.86 1026.70 1026.54 1026.42 1026.26 1026.10 1025.98 1025.82 1025.70 1025.54 1025.34 1025.18 1025.02 1024.86 1024.62 1024.38 1024.14 1023.94 1023.70 1023.46 1023.26 1023.02 1022.82 1022.58 1022.34 1022.10 1021.86 1021.62 1021.38 1021.14 1020.94 1020.70 1020.50 1020.42 1020.50 1020.50 1020.38 1020.18 1019.98 1019.78 1019.54 1019.30 1019.14 1019.02 1018.94 1018.90 1018.86 1018.82 1018.74 1018.70 1018.62
1029.26 1029.10 1028.90 1028.74 1028.62 1028.50 1028.38 1028.30 1028.18 1028.06 1027.90 1027.74 1027.58 1027.42 1027.30 1027.18 1026.98 1026.86 1026.74 1026.58 1026.42 1026.26 1026.10 1025.98 1025.82 1025.70 1025.54 1025.42 1025.22 1025.10 1024.94 1024.74 1024.54 1024.26 1023.98 1023.78 1023.58 1023.38 1023.14 1022.94 1022.70 1022.46 1022.22 1021.98 1021.74 1021.50 1021.26 1021.02 1020.82 1020.66 1020.50 1020.38 1020.26 1020.18 1020.06 1019.86 1019.70 1019.54 1019.38 1019.18 1019.02 1018.94 1018.82 1018.78 1018.70 1018.66 1018.58 1018.54 1018.42
1029.02 1028.90 1028.74 1028.62 1028.50 1028.38 1028.30 1028.22 1028.10 1027.94 1027.78 1027.58 1027.46 1027.30 1027.18 1027.02 1026.86 1026.70 1026.58 1026.46 1026.30 1026.14 1025.98 1025.82 1025.70 1025.54 1025.42 1025.26 1025.10 1024.94 1024.74 1024.58 1024.38 1024.14 1023.90 1023.62 1023.42 1023.26 1023.06 1022.82 1022.54 1022.34 1022.10 1021.82 1021.58 1021.34 1021.10 1020.90 1020.70 1020.54 1020.38 1020.26 1020.06 1019.86 1019.70 1019.54 1019.38 1019.26 1019.10 1019.02 1018.90 1018.82 1018.74 1018.70 1018.58 1018.50 1018.38 1018.30 1018.18
1028.78 1028.70 1028.62 1028.50 1028.42 1028.30 1028.18 1028.06 1027.94 1027.78 1027.62 1027.50 1027.34 1027.18 1027.06 1026.90 1026.74 1026.58 1026.46 1026.34 1026.22 1026.06 1025.86 1025.70 1025.54 1025.42 1025.26 1025.10 1024.94 1024.78 1024.54 1024.38 1024.22 1023.98 1023.78 1023.54 1023.30 1023.10 1022.94 1022.70 1022.42 1022.22 1021.98 1021.70 1021.42 1021.22 1021.02 1020.82 1020.54 1020.26 1020.10 1019.98 1019.82 1019.62 1019.42 1019.22 1019.06 1018.90 1018.82 1018.82 1018.74 1018.70 1018.62 1018.54 1018.42 1018.30 1018.18 1018.10 1017.98
1028.54 1028.46 1028.38 1028.34 1028.26 1028.10 1027.98 1027.90 1027.78 1027.62 1027.50 1027.38 1027.22 1027.06 1026.94 1026.78 1026.66 1026.50 1026.34 1026.22 1026.06 1025.90 1025.74 1025.58 1025.42 1025.26 1025.10 1024.98 1024.78 1024.54 1024.38 1024.18 1024.02 1023.82 1023.62 1023.42 1023.18 1022.98 1022.78 1022.54 1022.26 1022.06 1021.82 1021.54 1021.30 1021.10 1020.90 1020.70 1020.38 1020.06 1019.82 1019.66 1019.50 1019.38 1019.22 1018.98 1018.78 1018.62 1018.54 1018.54 1018.54 1018.54 1018.46 1018.38 1018.22 1018.10 1018.02 1017.98 1017.90
1028.26 1028.22 1028.18 1028.10 1028.06 1027.98 1027.86 1027.70 1027.58 1027.50 1027.38 1027.26 1027.10 1026.98 1026.82 1026.66 1026.50 1026.34 1026.18 1026.06 1025.90 1025.78 1025.62 1025.42 1025.26 1025.10 1024.98 1024.82 1024.62 1024.42 1024.22 1024.02 1023.82 1023.66 1023.42 1023.22 1023.02 1022.82 1022.58 1022.38 1022.10 1021.86 1021.62 1021.38 1021.14 1020.98 1020.74 1020.54 1020.26 1019.94 1019.66 1019.46 1019.30 1019.18 1019.06 1018.82 1018.54 1018.38 1018.34 1018.38 1018.38 1018.38 1018.26 1018.18 1018.02 1017.98 1017.90 1017.82 1017.82
Wind_Speed
5 5 5 5 5 5 5 5 5 5 5 6 6 6 6 6 7 7 7 7 7 7 7 7 8 9 10 13 14 14 14 15 15 15 15 15 15 14 15 14 14 15 16 17 17 15 14 13 12 10 8 8 8 8 8 7 8 9 9 9 9 9 10 11 11 11 12 12 10
6 6 6 6 5 5 5 5 5 5 6 5 6 6 6 6 7 7 7 7 7 7 7 7 8 10 12 14 14 14 14 14 15 15 15 15 15 15 14 14 14 15 16 17 17 15 13 14 12 10 8 8 8 8 8 8 8 9 10 11 9 8 8 9 10 10 11 11 10
6 6 6 6 6 6 5 5 6 6 7 7 6 6 7 7 6 7 7 7 8 8 8 8 9 10 12 13 13 13 13 14 15 15 14 14 14 15 14 14 15 15 16 15 16 15 14 14 12 10 8 8 9 9 9 9 9 10 10 11 9 7 7 7 8 9 9 8 9
6 6 6 6 7 7 7 6 7 7 8 7 7 7 7 7 6 6 7 8 9 9 8 8 9 10 11 12 13 13 14 14 15 15 14 14 14 15 15 15 15 15 15 15 16 16 16 15 11 9 8 9 10 10 9 9 10 10 9 9 8 8 7 7 7 7 7 7 9
6 6 6 6 7 8 7 7 8 8 8 7 7 7 7 7 7 7 7 8 8 8 9 11 10 10 10 12 13 14 14 15 14 14 13 14 14 15 15 15 15 15 15 15 16 16 16 16 11 8 8 9 9 9 9 10 11 10 9 8 8 8 7 7 7 7 7 8 8
6 6 6 7 8 8 8 7 9 9 8 7 8 8 8 7 7 7 8 8 9 10 11 12 11 11 11 12 13 14 13 13 13 13 13 14 13 14 15 15 15 15 14 15 16 16 15 14 10 8 8 8 9 9 10 11 11 10 10 9 8 8 8 8 8 8 8 10 11
6 7 7 8 8 8 8 8 8 9 8 8 9 10 10 9 9 10 11 10 10 10 10 10 10 11 11 12 13 13 13 12 12 13 13 13 13 14 15 15 15 15 15 15 15 15 14 13 10 9 9 9 8 10 11 11 11 11 11 10 9 8 8 9 8 8 9 12 14
7 7 8 8 8 9 9 9 9 9 8 8 9 11 11 11 12 12 12 11 10 9 9 9 11 12 13 13 13 13 13 13 13 13 13 12 13 14 14 14 15 15 15 15 15 15 14 11 9 8 9 9 9 10 11 13 12 12 12 12 10 9 8 8 8 9 10 13 14
7 7 8 8 8 9 9 9 10 10 10 10 11 11 12 12 12 12 11 10 10 9 10 9 11 13 13 14 13 13 13 12 12 12 12 12 13 13 13 13 14 14 14 14 14 15 14 11 9 8 9 9 9 11 12 14 14 13 12 11 10 10 9 9 10 10 11 12 13
7 7 8 8 8 9 9 9 10 10 11 11 12 12 12 12 12 11 10 9 9 10 11 11 12 13 13 13 13 13 12 12 12 12 12 12 12 13 12 11 12 13 14 13 13 14 13 11 10 10 10 10 11 12 13 14 14 14 13 10 10 11 12 11 12 12 12 11 12
8 8 8 8 8 9 9 9 10 10 10 10 11 11 11 11 11 11 10 10 10 11 12 12 12 12 12 12 12 12 12 12 11 12 12 12 12 12 12 11 12 13 13 13 13 12 11 10 11 12 12 12 12 12 13 14 14 14 13 12 12 13 13 13 12 12 11 11 12
8 8 8 8 8 9 9 9 9 9 10 10 11 11 11 11 11 11 11 11 12 12 12 12 12 12 12 11 11 11 12 12 13 13 13 13 13 12 12 12 12 13 13 13 12 11 10 10 12 13 14 14 11 11 11 13 14 14 14 13 13 13 12 12 12 11 10 11 12
8 8 8 8 8 9 9 9 9 9 9 10 10 10 10 10 11 11 12 12 12 11 11 11 12 12 11 11 11 11 12 12 13 13 13 13 12 12 12 11 12 12 13 13 12 11 11 11 13 13 14 14 12 11 12 13 13 13 14 14 13 13 12 12 12 12 12 13 12
8 8 8 8 8 8 8 9 8 8 9 10 10 10 10 10 10 11 11 11 11 11 11 11 11 11 11 11 12 12 12 12 13 13 13 13 12 12 12 11 11 12 12 12 12 12 12 12 13 13 13 13 13 13 13 13 13 13 13 13 13 13 12 12 12 12 12 13 13
8 8 8 8 8 8 8 8 8 8 8 9 9 9 9 9 10 10 11 11 11 11 11 11 10 11 11 12 13 13 13 13 13 13 13 13 13 13 12 11 10 11 11 12 12 12 12 12 13 13 13 13 13 12 12 12 12 12 12 12 12 12 12 12 12 11 11 12 13
8 8 8 8 8 8 8 8 7 7 8 9 9 9 9 9 9 10 11 11 11 10 10 11 11 11 11 12 13 13 13 13 13 13 13 13 13 13 12 11 10 10 11 12 12 12 12 12 12 12 13 12 12 11 11 12 12 12 12 12 12 12 12 12 12 11 11 11 12
8 8 8 8 8 8 8 8 8 8 8 9 10 10 10 9 9 10 11 11 11 11 11 12 12 11 11 12 12 12 12 12 12 12 12 12 13 13 12 12 10 10 10 11 11 12 12 12 12 12 12 12 10 10 10 11 11 12 12 13 12 12 12 12 11 10 10 11 12
8 8 8 8 8 8 9 9 9 9 10 10 10 10 10 10 10 10 11 12 12 12 13 14 13 12 12 12 12 11 11 11 12 12 12 12 13 13 12 12 10 10 10 10 11 11 12 12 12 12 12 11 9 9 9 10 10 11 12 13 13 12 12 11 10 9 9 11 11
8 8 8 8 8 9 9 10 10 10 10 11 10 10 10 11 11 11 11 12 12 13 14 14 13 13 12 13 12 12 11 11 12 13 13 13 12 12 12 12 10 10 10 10 11 11 11 12 13 12 12 10 9 9 9 9 10 11 12 12 12 11 10 10 9 9 9 10 11
8 8 8 8 8 9 9 10 10 10 10 10 11 11 11 11 12 12 12 12 13 13 13 14 13 13 13 13 13 12 12 11 12 12 13 13 12 12 12 12 10 10 10 10 10 10 11 12 13 13 11 10 9 9 9 10 10 10 11 10 10 10 10 10 10 10 10 10 10
8 8 8 8 8 9 9 10 10 11 11 11 11 11 11 12 12 12 12 13 13 13 13 13 13 13 13 13 13 13 12 11 12 12 12 12 12 12 12 11 10 10 10 9 9 10 11 12 13 12 11 9 8 9 9 10 10 10 11 10 10 10 11 11 11 11 10 10 10
8 8 8 8 9 9 10 10 10 11 11 11 11 11 11 11 12 12 12 12 13 13 13 13 13 13 13 13 13 13 13 12 12 12 12 12 12 12 12 11 10 10 10 9 9 9 11 13 13 11 9 7 8 9 10 10 10 11 11 11 11 11 11 12 12 11 10 10 10
8 8 8 8 9 9 10 10 10 11 11 11 11 11 11 11 11 12 12 12 12 12 12 12 12 13 13 13 13 13 13 13 13 13 13 13 12 12 12 11 10 10 9 8 8 9 11 12 11 9 7 6 7 9 10 10 10 10 10 11 11 11 11 11 11 11 10 10 10
8 8 8 8 9 9 10 10 10 10 11 11 11 11 11 11 11 11 12 12 12 12 12 11 11 12 13 13 13 14 14 14 14 14 14 14 13 13 13 11 10 10 9 8 9 11 13 12 9 5 5 6 7 8 9 9 9 9 10 10 11 10 10 10 10 10 10 10 10
8 8 8 8 9 9 10 10 10 10 10 10 10 10 10 11 11 11 11 12 12 12 12 12 12 12 13 13 13 13 13 13 13 14 14 14 14 14 13 12 10 9 8 8 13 17 19 18 12 6 3 6 6 7 7 7 8 9 9 10 10 10 10 10 10 10 10 10 9
8 9 9 9 10 10 10 10 10 10 10 10 10 10 10 10 10 11 11 11 12 12 12 12 12 12 12 12 12 12 12 12 12 13 13 14 14 14 13 12 10 8 7 10 16 20 22 23 20 13 6 4 5 6 6 6 7 8 9 10 10 9 9 9 10 10 10 10 9
8 9 9 10 10 10 10 10 10 10 10 10 10 10 10 10 10 10 11 11 11 12 12 11 11 11 11 11 11 12 12 12 12 13 13 13 14 14 14 13 10 8 8 14 19 21 22 22 22 19 12 4 5 5 6 6 7 8 9 9 9 9 9 9 10 10 11 10 10
8 9 10 10 10 10 10 10 10 10 10 10 10 10 10 10 11 11 11 11 11 11 10 10 10 9 9 9 10 11 12 13 13 12 12 13 14 14 14 13 11 11 13 18 21 22 21 21 22 21 17 8 5 5 5 6 7 8 8 8 8 9 9 9 9 9 10 11 11
9 10 11 11 10 10 10 10 10 10 10 10 10 10 10 11 11 11 11 11 11 11 10 8 8 8 8 9 11 12 13 13 12 12 12 13 14 14 14 14 13 14 17 21 22 22 21 21 22 22 20 13 6 4 3 5 6 6 7 7 8 9 9 9 8 9 9 10 11
10 10 11 11 11 10 10 10 10 10 10 9 10 10 11 11 11 11 11 11 11 10 9 9 9 9 10 11 12 12 12 12 12 12 12 13 14 14 14 15 14 14 17 21 22 22 22 22 22 23 22 17 7 4 3 4 5 6 6 7 8 9 10 10 10 10 10 10 11
10 10 11 11 11 10 10 10 10 10 10 9 10 10 11 11 11 11 11 10 10 10 10 10 11 11 12 12 12 12 12 12 12 12 12 13 14 15 15 15 15 15 17 20 22 22 22 22 23 23 23 20 9 4 4 5 6 6 6 7 9 10 10 9 9 9 10 11 11
10 10 11 11 11 11 10 10 10 10 10 10 11 11 11 11 11 11 10 10 10 11 11 11 12 12 12 12 12 12 13 13 13 13 13 13 14 15 15 15 15 15 17 20 22 23 23 23 23 24 23 20 9 4 4 6 7 7 8 8 9 10 10 8 8 9 10 11 10
10 10 11 11 11 11 10 10 10 10 10 10 11 11 11 11 11 10 10 10 10 10 11 11 11 12 12 12 12 12 13 13 13 13 14 14 15 15 16 15 13 14 17 21 22 23 23 23 23 23 22 18 9 5 6 8 8 8 8 7 7 8 9 9 9 9 9 10 10
9 10 11 11 11 11 10 10 10 10 10 11 11 11 11 11 11 10 10 10 9 10 10 10 11 11 11 11 12 12 12 12 13 13 14 15 15 16 15 14 11 13 17 21 23 23 23 23 24 23 21 16 8 5 7 9 10 9 8 7 6 6 6 7 8 8 9 9 9
9 10 11 11 11 10 10 10 10 10 10 11 11 11 11 11 11 10 10 10 10 10 10 10 10 11 11 11 11 12 12 13 13 14 14 15 15 15 16 15 13 16 19 22 23 23 23 23 24 23 21 15 7 5 7 10 11 11 10 8 8 7 6 5 6 7 8 9 9
10 11 11 11 11 10 10 10 10 10 11 11 11 11 11 11 10 10 10 10 10 10 10 11 11 11 11 11 11 11 12 13 14 14 14 15 15 15 16 16 15 17 20 22 22 23 23 23 23 23 21 14 7 6 7 9 9 10 10 9 8 8 7 6 6 7 7 7 8
10 11 11 11 10 10 10 10 10 11 11 11 11 11 11 11 10 10 10 10 10 10 11 11 11 11 11 12 11 11 12 12 13 14 14 15 15 15 15 16 16 17 19 21 22 23 23 23 23 23 20 14 10 8 8 8 8 8 8 8 8 8 7 7 7 7 7 7 8
11 11 11 11 10 10 10 10 10 11 11 11 11 11 11 11 10 10 10 9 10 10 11 11 11 11 11 12 12 12 13 13 13 14 14 14 14 14 15 16 16 16 17 19 21 22 23 23 24 23 20 15 12 10 9 8 7 7 7 7 6 6 6 6 6 7 7 7 10
10 10 10 10 10 10 10 10 11 11 11 11 11 11 11 10 10 9 9 9 9 10 11 11 11 12 12 12 12 12 13 13 13 14 14 14 14 15 15 15 15 15 17 19 21 22 23 23 24 24 22 16 13 10 9 8 8 7 7 6 5 5 5 5 6 6 7 9 12
10 10 10 10 10 10 10 11 11 11 10 10 11 11 11 10 10 10 10 9 9 10 10 11 11 12 12 12 12 12 13 13 13 13 13 14 14 15 16 15 15 16 17 19 21 22 22 23 24 25 22 16 11 9 9 9 8 7 6 5 4 4 4 5 5 6 7 8 10
9 9 9 10 10 10 11 11 11 11 10 10 11 11 10 10 10 10 10 9 10 10 10 10 11 12 12 12 11 12 12 13 13 13 14 14 14 15 15 14 15 15 16 17 19 21 22 23 24 25 23 16 11 9 8 9 9 7 6 4 4 4 4 5 5 5 6 7 7
Wind_Direction
277 277 279 280 282 283 285 285 286 287 290 293 298 300 302 301 301 301 302 303 304 305 305 306 307 308 311 314 316 318 320 321 323 324 326 327 328 330 331 331 331 331 330 328 327 328 331 333 330 326 320 316 314 314 314 313 313 311 308 306 303 301 299 298 296 294 293 291 287
277 278 279 279 279 279 280 282 285 288 291 295 298 299 300 299 298 298 299 301 302 303 304 303 305 308 311 314 316 318 319 320 322 324 326 327 328 330 331 331 332 332 331 329 329 330 332 333 331 327 321 318 317 317 317 319 318 315 313 311 307 304 301 300 299 297 296 293 290
278 278 278 277 278 280 282 284 288 292 295 297 298 298 297 295 294 296 297 299 300 301 302 303 305 308 311 313 315 316 318 319 321 323 325 327 328 330 332 332 332 332 332 330 331 332 332 333 331 327 323 320 320 320 320 322 322 320 317 315 312 308 306 303 303 302 300 298 296
276 277 277 278 281 283 286 288 291 294 296 298 297 295 293 291 292 293 295 297 299 300 301 303 306 308 310 311 313 314 316 318 320 322 324 326 328 330 332 332 333 332 331 330 331 331 332 332 329 327 324 322 320 320 322 325 326 324 320 318 315 312 310 308 308 307 306 305 303
276 276 278 280 283 285 287 288 291 294 296 297 295 293 291 290 291 293 296 298 299 301 302 305 306 307 308 309 311 313 315 317 319 321 323 325 327 329 331 333 333 332 330 330 331 331 332 333 329 326 325 325 323 322 323 326 327 325 323 319 318 317 316 315 314 314 314 313 312
278 279 279 280 282 284 286 287 291 294 295 295 292 291 291 292 294 297 299 300 299 301 302 304 305 305 307 309 311 312 313 315 317 319 321 323 325 328 330 332 332 331 330 329 330 331 332 333 329 327 327 326 322 321 322 326 326 324 322 320 320 320 321 323 321 320 319 319 319
283 282 281 281 282 283 285 287 290 292 293 291 290 290 292 294 296 298 300 300 300 301 303 304 305 306 307 309 310 311 312 313 314 316 318 320 323 326 328 330 331 331 330 329 329 330 332 333 330 329 329 327 323 323 325 327 325 323 321 319 319 320 321 322 320 319 319 319 320
281 280 280 281 281 282 284 287 289 290 290 289 289 291 292 295 297 299 300 299 300 302 303 303 304 306 307 308 309 309 310 310 311 313 315 317 320 323 325 327 329 329 329 329 329 330 331 331 331 330 330 327 323 323 325 326 324 322 319 317 316 317 319 319 318 317 317 318 318
278 277 278 279 280 282 284 287 289 290 289 289 289 291 293 295 297 298 299 300 301 302 302 302 304 305 307 307 308 308 308 309 309 310 312 314 316 319 322 324 326 327 327 328 328 328 329 328 329 330 329 325 322 322 322 324 323 321 319 316 316 317 318 317 317 318 318 317 317
279 279 280 281 282 284 287 290 290 289 289 289 290 292 293 295 296 298 299 300 301 301 301 302 304 306 307 307 307 307 307 307 307 308 309 310 312 315 318 320 322 323 325 326 327 327 327 326 327 326 325 321 320 319 320 322 322 321 320 317 318 318 319 319 320 320 319 317 316
279 281 282 283 287 289 290 291 290 289 290 290 291 292 293 294 295 297 298 300 299 299 301 303 305 306 305 305 306 306 306 307 307 308 308 309 310 312 314 316 318 319 321 323 324 325 325 324 323 323 322 320 319 319 319 321 321 320 319 317 317 318 319 320 321 320 319 318 317
280 281 283 284 287 289 290 290 290 290 290 290 291 292 292 293 295 297 298 298 298 299 301 304 304 304 304 303 304 305 306 306 307 307 307 308 309 310 312 313 314 315 317 319 321 322 322 321 320 319 319 319 318 318 319 320 320 319 317 316 317 318 318 319 319 318 318 319 319
281 282 283 285 287 288 289 289 289 289 290 290 291 292 293 294 296 297 298 297 299 300 301 302 301 301 301 302 304 305 305 306 307 307 308 309 309 310 311 312 312 312 313 314 316 318 318 317 317 316 316 316 316 316 317 319 318 317 316 315 315 316 315 316 316 317 318 320 319
280 281 282 285 287 288 288 289 289 289 290 291 292 294 295 296 297 298 298 298 299 300 300 300 299 300 301 303 303 304 305 305 307 308 308 309 310 311 311 311 309 309 309 310 311 313 314 313 313 312 312 312 313 314 315 316 315 314 312 312 311 311 311 312 314 316 317 319 318
280 281 283 285 287 288 288 290 290 290 292 293 295 297 298 298 298 298 298 298 298 298 298 298 298 300 301 302 302 303 304 305 307 308 309 310 311 312 311 310 307 306 305 305 306 307 308 308 308 308 308 308 310 311 312 313 312 310 308 307 306 306 307 308 311 314 315 315 315
279 281 284 285 287 288 289 291 291 292 294 295 298 299 299 298 298 298 298 298 298 297 296 297 298 298 299 300 301 302 304 305 307 308 310 311 312 312 311 309 305 302 301 301 302 302 302 303 304 304 304 304 306 308 309 310 308 307 304 303 302 303 303 304 307 308 309 309 311
279 281 284 286 288 290 291 292 293 294 295 296 298 298 298 298 298 298 298 298 297 296 296 296 297 297 298 299 301 302 303 304 306 308 309 310 311 311 309 308 303 300 298 297 297 297 298 299 299 299 299 300 301 303 305 305 304 303 302 301 301 299 299 299 300 301 302 304 308
279 281 284 286 288 290 292 293 293 293 294 296 297 297 297 298 298 298 297 297 296 295 295 295 295 296 296 297 299 301 302 303 304 306 307 308 308 308 307 306 301 298 296 294 293 292 293 294 295 295 295 296 297 299 300 300 299 299 299 299 298 296 294 294 294 296 299 304 308
279 282 284 286 288 290 291 292 292 293 294 295 296 296 297 297 297 297 296 296 295 295 295 295 295 295 295 296 298 299 301 302 302 302 303 304 305 305 305 305 301 297 294 291 289 288 288 289 291 291 291 292 294 295 296 295 295 295 295 295 294 293 292 294 295 298 302 306 308
279 282 284 287 289 291 291 292 292 293 294 295 296 297 297 297 297 297 297 296 296 295 295 294 294 295 296 297 298 299 300 299 300 300 300 301 303 303 303 303 300 296 292 288 286 285 285 286 286 285 285 286 290 292 292 291 290 290 291 291 292 295 300 304 305 306 306 306 306
279 282 285 287 289 290 290 291 291 293 294 295 296 297 298 298 298 298 298 297 297 297 296 295 294 295 296 298 298 299 298 297 297 297 298 300 301 302 302 301 299 295 291 286 284 282 282 283 281 278 275 277 282 285 286 286 286 288 290 294 299 305 309 312 312 310 309 307 306
279 282 285 287 288 289 289 290 291 292 294 294 296 297 298 299 299 299 299 299 299 298 297 296 296 296 297 297 298 297 297 296 296 296 297 299 300 301 302 301 298 294 289 285 284 283 282 282 277 269 261 260 268 273 276 278 283 287 293 299 304 308 310 312 313 312 309 307 305
279 282 285 286 287 288 289 290 291 292 293 295 296 298 299 300 300 301 301 301 300 299 298 297 296 296 296 295 294 293 293 293 294 295 297 299 301 301 302 301 297 294 291 288 288 286 285 283 277 264 242 236 253 262 268 272 279 285 292 297 301 305 308 310 312 312 311 309 309
278 281 284 285 286 288 289 290 291 292 293 295 297 299 300 301 302 302 302 302 300 299 298 296 295 294 293 292 290 290 290 291 294 296 299 300 301 302 302 302 298 296 294 293 294 294 293 293 289 265 223 219 241 255 263 268 276 282 288 293 297 301 305 309 311 313 314 314 315
277 281 283 285 286 287 288 289 290 292 294 296 298 300 301 303 303 303 303 302 300 299 297 295 294 293 291 290 289 289 290 293 296 298 300 301 302 303 303 302 300 298 296 293 296 299 301 305 310 303 235 213 237 251 261 266 274 281 286 290 294 298 302 308 312 316 319 320 319
279 283 284 285 285 286 287 288 290 292 294 296 299 301 302 303 303 303 302 301 300 300 299 297 295 293 291 290 290 292 294 296 298 300 301 301 302 303 304 304 302 298 294 293 299 303 307 310 316 317 304 227 244 257 267 272 278 283 286 289 292 295 299 306 314 320 324 325 322
283 285 285 284 285 286 287 288 290 292 294 297 300 301 302 303 303 303 302 302 301 301 300 298 295 294 293 292 294 296 298 299 300 300 300 301 302 304 304 304 302 298 295 297 302 306 309 312 316 319 317 275 259 265 278 289 290 290 289 290 290 293 297 305 315 322 326 327 325
286 286 284 284 285 286 287 289 291 293 296 298 300 301 302 302 303 303 303 303 303 302 301 299 298 297 297 298 299 301 301 301 301 301 301 302 303 304 304 304 303 301 300 302 305 308 310 312 315 318 319 307 275 264 277 291 292 291 290 290 290 294 299 307 316 322 326 328 327
284 283 283 283 285 287 288 290 292 294 297 299 300 301 302 302 303 303 304 304 304 305 305 304 303 303 302 303 303 303 303 302 302 303 303 304 304 304 304 303 303 302 302 305 306 308 309 311 313 316 317 315 288 258 265 282 284 287 289 291 292 296 302 309 315 320 324 327 328
278 279 280 282 285 287 288 290 292 295 298 299 300 301 301 302 303 303 304 305 306 307 308 308 307 306 305 305 304 304 304 304 305 305 305 305 305 304 304 304 304 303 303 304 305 307 309 311 313 315 317 316 295 257 248 266 273 280 287 290 293 296 301 307 312 317 322 326 327
276 277 279 281 283 285 287 290 293 295 297 298 299 300 300 301 302 304 305 307 308 308 308 308 307 306 306 306 305 305 305 306 306 307 306 305 305 305 305 305 304 303 302 304 306 307 310 312 313 315 317 318 302 266 240 257 265 270 277 282 288 294 300 305 310 315 319 323 325
272 275 277 279 282 284 287 290 293 295 297 297 298 299 300 301 302 304 306 308 308 308 308 308 308 308 307 307 307 307 307 307 308 307 307 306 306 306 305 305 305 304 304 305 307 309 311 313 314 316 318 321 312 278 247 256 259 260 262 268 279 290 299 305 308 312 316 319 321
269 273 276 278 280 282 285 289 292 294 296 297 297 298 299 301 303 305 306 306 307 307 308 309 309 309 309 309 308 308 307 307 307 307 307 307 306 306 306 306 305 305 306 307 308 310 312 314 315 318 321 325 318 287 258 259 258 257 259 265 279 292 301 305 306 309 311 314 315
267 270 273 275 277 280 284 288 291 293 295 296 297 298 300 302 304 305 306 306 307 308 308 308 308 308 308 307 307 307 307 307 307 307 307 307 306 306 307 308 306 307 308 309 310 312 313 315 316 319 323 327 318 285 262 262 263 266 272 284 294 301 303 303 302 303 305 307 309
260 265 268 271 275 279 284 288 291 293 294 295 297 299 301 303 304 306 306 307 308 307 307 307 307 306 305 305 305 305 306 307 307 307 307 307 307 308 308 309 308 309 310 311 312 313 314 315 317 320 323 327 313 278 261 262 266 274 285 298 304 306 305 302 299 299 301 303 306
258 262 266 271 275 280 284 288 290 292 293 294 296 298 301 303 304 305 306 307 307 307 306 306 306 306 305 305 305 305 306 306 307 307 307 307 308 309 310 311 310 311 312 313 313 313 313 314 316 319 322 325 311 278 263 260 267 278 289 300 305 310 312 310 304 300 300 302 304
257 261 266 270 275 279 283 287 289 290 292 293 296 298 301 303 304 304 305 306 307 306 306 306 306 306 306 306 305 305 305 305 305 306 306 307 309 310 311 312 312 312 312 312 311 311 312 313 315 317 319 321 313 293 274 264 266 274 284 295 302 310 314 313 308 304 302 301 304
252 257 262 269 274 278 281 284 286 288 290 292 295 298 300 302 303 304 305 306 306 306 306 306 306 305 305 305 304 303 303 303 304 305 306 307 309 310 311 311 311 310 309 309 309 310 311 313 314 315 316 314 312 306 294 280 271 270 275 286 295 304 310 310 308 307 306 306 310
247 252 258 265 269 273 277 280 282 285 288 291 294 296 299 301 301 302 303 304 304 304 305 305 305 305 304 304 303 303 303 303 304 304 305 306 308 310 310 310 309 307 306 306 308 310 312 315 315 315 314 311 309 307 303 296 284 275 271 275 286 296 303 304 306 308 311 312 316
245 250 255 260 265 270 274 277 281 284 287 290 293 295 297 299 299 300 301 301 302 303 304 303 304 305 305 306 305 304 304 304 304 304 305 306 307 308 309 308 306 305 304 305 307 311 314 317 317 318 318 313 310 308 306 304 295 284 272 268 276 286 294 298 303 309 315 318 320
247 252 257 262 266 270 273 277 280 283 286 289 292 294 296 298 298 299 300 301 303 303 303 303 304 306 307 307 306 305 305 305 305 306 306 308 308 308 307 306 304 303 304 305 309 313 316 319 320 322 324 326 323 319 314 310 304 294 281 267 271 277 285 291 301 311 318 323 323